Date String (YYYY-MM-DD hh:mm:ss) UTC,Instrument flags,Ambient pressure (hPa),Sample flow (lpm),Bypass flow (lpm),Sample temperature (°C),Ambient temperature (°C),ASC tube jacket temperature (°C),LED temperature (°C),Box temperature (°C),Sample RH (%),Span deviation,Mass concentration (μg/m³),Mass concentration (μg/m³),Mass concentration (μg/m³)
DateTimeUTC,F1_M11,P_M11,Q1_M11,Q2_M11,T1_M11,T2_M11,T3_M11,T4_M11,T5_M11,U1_M11,ZSPAN_M11,X2_M11,X0_M11,X1_M11
2023-02-05 08:00:00,,0825.2,4.97,0.00,22.1,20.7,00.0,31.0,23.9,07.2,0000.0,0001.01,0002.08,0000.50
2023-02-05 08:01:00,,0825.3,5.05,0.00,22.1,20.7,00.0,31.0,23.9,07.3,0000.0,0001.03,0002.16,0000.50
2023-02-05 08:02:00,,0825.3,4.97,0.00,22.1,20.7,00.0,31.0,23.9,07.6,0000.0,0001.03,0002.22,0000.49
2023-02-05 08:03:00,,0825.2,5.04,0.00,22.1,20.7,00.0,31.0,23.9,07.5,0000.0,0001.02,0002.21,0000.49
2023-02-05 08:04:00,,0825.2,4.97,0.00,22.1,20.8,00.0,31.0,23.9,07.3,0000.0,0000.97,0002.06,0000.49
2023-02-05 08:05:00,,0825.2,4.99,0.00,22.1,20.8,00.0,30.9,23.9,07.2,0000.0,0000.92,0001.99,0000.48
2023-02-05 08:06:00,,0825.3,5.02,0.00,22.1,20.8,00.0,31.0,24.0,07.3,0000.0,0000.91,0001.97,0000.47
2023-02-05 08:07:00,,0825.3,4.97,0.00,22.1,20.9,00.0,31.0,23.9,07.7,0000.0,0000.91,0001.97,0000.47
2023-02-05 08:08:00,,0825.3,5.05,0.00,22.1,20.9,00.0,31.0,23.9,08.1,0000.0,0000.93,0002.07,0000.47
2023-02-05 08:09:00,,0825.3,4.97,0.00,22.1,20.9,00.0,31.0,23.9,08.4,0000.0,0001.00,0002.35,0000.47
2023-02-05 08:10:00,,0825.3,5.04,0.00,22.1,20.9,00.0,31.0,24.0,09.3,0000.0,0001.12,0002.64,0000.51
2023-02-05 08:11:00,,0825.2,4.97,0.00,22.1,20.9,00.0,31.0,24.0,09.7,0000.0,0001.26,0002.97,0000.56
2023-02-05 08:12:00,,0825.2,5.00,0.00,22.1,20.9,00.0,31.0,24.0,09.9,0000.0,0001.33,0003.17,0000.62
2023-02-05 08:13:00,,0825.3,5.01,0.00,22.2,20.9,00.0,31.0,24.0,10.3,0000.0,0001.35,0003.14,0000.68
2023-02-05 08:14:00,,0825.2,4.97,0.00,22.1,20.9,00.0,31.0,24.0,10.1,0000.0,0001.44,0003.53,0000.75
2023-02-05 08:15:00,,0825.2,5.05,0.00,22.2,20.9,00.0,31.0,24.0,09.7,0000.0,0001.51,0004.69,0000.82
2023-02-05 08:16:00,,0825.2,4.96,0.00,22.2,20.9,00.0,31.0,23.9,10.0,0000.0,0001.62,0005.41,0000.89
2023-02-05 08:17:00,,0825.2,5.03,0.00,22.2,20.9,00.0,31.0,24.0,10.1,0000.0,0001.81,0006.63,0001.02
2023-02-05 08:18:00,,0825.2,4.96,0.00,22.2,21.0,00.0,31.0,24.0,09.8,0000.0,0001.91,0007.07,0001.10
2023-02-05 08:19:00,,0825.2,5.02,0.00,22.2,21.4,00.0,31.0,24.2,09.5,0000.0,0002.02,0007.21,0001.18
2023-02-05 08:20:00,,0825.2,4.99,0.00,22.3,22.2,00.0,31.0,24.4,09.6,0000.0,0002.08,0007.20,0001.26
2023-02-05 08:21:00,,0825.1,4.99,0.00,22.4,22.7,00.0,31.0,24.6,09.3,0000.0,0002.12,0007.43,0001.32
2023-02-05 08:22:00,,0825.1,4.99,0.00,22.5,22.5,00.0,31.1,24.6,08.8,0000.0,0002.11,0007.38,0001.32
2023-02-05 08:23:00,,0825.2,5.00,0.00,22.5,22.2,00.0,31.1,24.5,08.3,0000.0,0002.09,0007.17,0001.31
2023-02-05 08:24:00,,0825.2,5.03,0.00,22.5,22.0,00.0,31.2,24.5,08.8,0000.0,0002.09,0007.19,0001.30
2023-02-05 08:25:00,,0825.2,4.97,0.00,22.5,21.8,00.0,31.2,24.5,10.2,0000.0,0002.13,0007.10,0001.35
2023-02-05 08:26:00,,0825.2,5.05,0.00,22.5,21.7,00.0,31.2,24.5,10.5,0000.0,0002.27,0006.06,0001.46
2023-02-05 08:27:00,,0825.2,4.96,0.00,22.5,21.5,00.0,31.2,24.4,10.0,0000.0,0002.41,0005.87,0001.60
2023-02-05 08:28:00,,0825.2,5.01,0.00,22.6,21.5,00.0,31.3,24.4,09.1,0000.0,0002.39,0004.92,0001.63
2023-02-05 08:29:00,,0825.2,5.00,0.00,22.6,21.4,00.0,31.3,24.4,08.5,0000.0,0002.42,0004.62,0001.61
2023-02-05 08:30:00,,0825.2,4.97,0.00,22.6,21.4,00.0,31.3,24.4,09.0,0000.0,0002.45,0005.43,0001.61
2023-02-05 08:31:00,,0825.3,5.04,0.00,22.6,21.4,00.0,31.3,24.4,09.2,0000.0,0002.56,0006.21,0001.65
2023-02-05 08:32:00,,0825.3,4.98,0.00,22.6,21.4,00.0,31.3,24.4,09.5,0000.0,0002.67,0007.06,0001.71
2023-02-05 08:33:00,,0825.3,5.03,0.00,22.6,21.3,00.0,31.3,24.4,09.1,0000.0,0002.84,0007.41,0001.79
2023-02-05 08:34:00,,0825.3,4.98,0.00,22.6,21.3,00.0,31.3,24.4,09.0,0000.0,0002.88,0007.44,0001.84
2023-02-05 08:35:00,,0825.3,5.00,0.00,22.6,21.3,00.0,31.3,24.4,08.4,0000.0,0002.97,0007.60,0001.88
2023-02-05 08:36:00,,0825.4,5.00,0.00,22.6,21.2,00.0,31.3,24.4,09.6,0000.0,0002.97,0007.77,0001.87
2023-02-05 08:37:00,,0825.4,4.97,0.00,22.6,21.2,00.0,31.3,24.3,10.1,0000.0,0003.00,0007.92,0001.87
2023-02-05 08:38:00,,0825.3,5.04,0.00,22.6,21.2,00.0,31.3,24.4,09.2,0000.0,0002.92,0008.04,0001.79
2023-02-05 08:39:00,,0825.4,4.97,0.00,22.5,21.2,00.0,31.3,24.4,08.4,0000.0,0002.77,0008.29,0001.69
2023-02-05 08:40:00,,0825.3,5.05,0.00,22.5,21.2,00.0,31.3,24.4,08.5,0000.0,0002.74,0008.33,0001.68
2023-02-05 08:41:00,,0825.3,4.97,0.00,22.5,21.2,00.0,31.3,24.4,08.7,0000.0,0002.73,0008.11,0001.72
2023-02-05 08:42:00,,0825.3,5.02,0.00,22.5,21.2,00.0,31.3,24.4,09.1,0000.0,0002.73,0007.96,0001.73
2023-02-05 08:43:00,,0825.4,4.97,0.00,22.5,21.2,00.0,31.3,24.4,09.5,0000.0,0002.75,0007.90,0001.77
2023-02-05 08:44:00,,0825.3,5.00,0.00,22.5,21.2,00.0,31.3,24.3,10.0,0000.0,0002.72,0008.29,0001.82
2023-02-05 08:45:00,,0825.3,5.00,0.00,22.5,21.2,00.0,31.3,24.3,10.1,0000.0,0002.91,0008.60,0001.99
2023-02-05 08:46:00,,0825.4,4.96,0.00,22.5,21.2,00.0,31.3,24.4,10.0,0000.0,0003.10,0008.67,0002.22
2023-02-05 08:47:00,,0825.5,5.04,0.00,22.5,21.2,00.0,31.3,24.4,10.3,0000.0,0003.27,0008.68,0002.50
2023-02-05 08:48:00,,0825.4,4.96,0.00,22.5,21.1,00.0,31.3,24.3,10.7,0000.0,0003.35,0008.61,0002.68
2023-02-05 08:49:00,,0825.4,5.05,0.00,22.5,21.1,00.0,31.3,24.3,10.8,0000.0,0003.44,0008.65,0002.82
2023-02-05 08:50:00,,0825.5,4.96,0.00,22.5,21.0,00.0,31.3,24.3,11.0,0000.0,0003.54,0008.62,0002.96
2023-02-05 08:51:00,,0825.5,5.04,0.00,22.5,20.9,00.0,31.3,24.2,11.4,0000.0,0003.65,0008.77,0003.10
2023-02-05 08:52:00,,0825.5,4.96,0.00,22.4,20.8,00.0,31.3,24.2,11.1,0000.0,0003.78,0009.27,0003.24
2023-02-05 08:53:00,,0825.5,5.05,0.00,22.4,20.7,00.0,31.3,24.1,11.0,0000.0,0003.91,0009.58,0003.40
2023-02-05 08:54:00,,0825.4,4.96,0.00,22.4,20.7,00.0,31.3,24.1,10.7,0000.0,0004.04,0009.24,0003.56
2023-02-05 08:55:00,,0825.3,5.04,0.00,22.4,20.7,00.0,31.3,24.1,10.7,0000.0,0004.20,0008.71,0003.70
2023-02-05 08:56:00,,0825.4,4.96,0.00,22.3,20.8,00.0,31.3,24.1,10.3,0000.0,0004.28,0008.60,0003.78
2023-02-05 08:57:00,,0825.3,5.05,0.00,22.3,20.8,00.0,31.3,24.1,10.4,0000.0,0004.33,0008.67,0003.81
2023-02-05 08:58:00,,0825.3,4.97,0.00,22.3,20.9,00.0,31.2,24.2,09.6,0000.0,0004.28,0008.59,0003.78
2023-02-05 08:59:00,,0825.3,5.00,0.00,22.3,20.9,00.0,31.2,24.2,09.9,0000.0,0004.26,0008.70,0003.74
